When you browse on this site, cookies collect data to enhance your experience and personalize the content and advertising you see.
Visit our Privacy Policy to learn more. By continuing to use the site, you agree to this use of cookies and data.
  • en Suisse
  • Liste des pays
  • À 7 jours
  • Température de l'eau
  • Carte météo
  • Widgets météo
  • user-avatar
    Se connecter

    Météo par heure à Richmond

    Ce jour, 27 Janvier, Lundi

    Heure Température Précipitation Vent Pression Humidité
    00:00 +3°C° 0 mm 2 m/s 756 mmHg 77%
    01:00 +3°C° 0 mm 2 m/s 756 mmHg 79%
    02:00 +2°C° 0 mm 2 m/s 756 mmHg 79%
    03:00 +2°C° 0 mm 2 m/s 755 mmHg 80%
    04:00 +2°C° 0 mm 2 m/s 755 mmHg 80%
    05:00 +2°C° 0 mm 2 m/s 755 mmHg 80%
    06:00 +2°C° 0 mm 2 m/s 755 mmHg 79%
    07:00 +1°C° 0 mm 2 m/s 755 mmHg 79%
    08:00 +3°C° 0 mm 2 m/s 755 mmHg 73%
    09:00 +5°C° 0 mm 2 m/s 755 mmHg 68%
    10:00 +7°C° 0 mm 2 m/s 755 mmHg 63%
    11:00 +8°C° 0 mm 3 m/s 754 mmHg 61%
    12:00 +10°C° 0 mm 3 m/s 754 mmHg 58%
    13:00 +11°C° 0 mm 3 m/s 753 mmHg 56%
    14:00 +11°C° 0 mm 3 m/s 753 mmHg 59%
    15:00 +10°C° 0 mm 2 m/s 752 mmHg 63%
    16:00 +10°C° 0 mm 2 m/s 752 mmHg 66%
    17:00 +9°C° 0 mm 2 m/s 752 mmHg 70%
    18:00 +7°C° 0 mm 2 m/s 753 mmHg 74%
    19:00 +6°C° 0 mm 2 m/s 753 mmHg 77%
    20:00 +5°C° 0 mm 2 m/s 753 mmHg 78%
    21:00 +5°C° 0 mm 2 m/s 754 mmHg 78%
    22:00 +4°C° 0 mm 2 m/s 754 mmHg 79%
    23:00 +4°C° 0 mm 2 m/s 754 mmHg 77%

    Demain, 28 Janvier, Mardi

    Heure Température Précipitation Vent Pression Humidité
    00:00 +3°C° 0 mm 2 m/s 755 mmHg 74%
    01:00 +2°C° 0 mm 3 m/s 755 mmHg 72%
    02:00 +1°C° 0 mm 3 m/s 755 mmHg 73%
    03:00 +2°C° 0 mm 2 m/s 755 mmHg 74%
    04:00 +1°C° 0 mm 2 m/s 755 mmHg 74%
    05:00 +1°C° 0 mm 2 m/s 756 mmHg 77%
    06:00 +1°C° 0 mm 1 m/s 756 mmHg 79%
    07:00 +1°C° 0 mm 1 m/s 757 mmHg 81%
    08:00 +3°C° 0 mm 1 m/s 757 mmHg 73%
    09:00 +4°C° 0 mm 1 m/s 757 mmHg 65%
    10:00 +6°C° 0 mm 1 m/s 757 mmHg 57%
    11:00 +6°C° 0 mm 2 m/s 757 mmHg 53%
    12:00 +7°C° 0 mm 2 m/s 757 mmHg 49%
    13:00 +9°C° 0 mm 2 m/s 756 mmHg 46%
    14:00 +9°C° 0 mm 2 m/s 756 mmHg 47%
    15:00 +9°C° 0 mm 2 m/s 756 mmHg 47%
    16:00 +10°C° 0 mm 1 m/s 756 mmHg 48%
    17:00 +8°C° 0 mm 1 m/s 757 mmHg 54%
    18:00 +7°C° 0 mm 1 m/s 757 mmHg 60%
    19:00 +4°C° 0 mm 0 m/s 758 mmHg 66%
    20:00 +5°C° 0 mm 1 m/s 758 mmHg 69%
    21:00 +4°C° 0 mm 1 m/s 758 mmHg 71%
    22:00 +3°C° 0 mm 2 m/s 759 mmHg 74%
    23:00 +3°C° 0 mm 2 m/s 759 mmHg 75%

    Après-demain, 29 Janvier, Mercredi

    Heure Température Précipitation Vent Pression Humidité
    00:00 +2°C° 0 mm 2 m/s 759 mmHg 75%
    01:00 +2°C° 0 mm 2 m/s 759 mmHg 76%
    02:00 +2°C° 0 mm 1 m/s 759 mmHg 77%
    03:00 +2°C° 0 mm 1 m/s 759 mmHg 77%
    04:00 +1°C° 0 mm 1 m/s 759 mmHg 78%
    05:00 +1°C° 0 mm 1 m/s 759 mmHg 78%
    06:00 +1°C° 0 mm 1 m/s 760 mmHg 79%
    07:00 0°C° 0 mm 1 m/s 760 mmHg 79%
    08:00 +1°C° 0 mm 1 m/s 761 mmHg 72%
    09:00 +2°C° 0 mm 2 m/s 761 mmHg 66%
    10:00 +3°C° 0 mm 2 m/s 762 mmHg 59%
    11:00 +4°C° 0 mm 2 m/s 761 mmHg 56%
    12:00 +5°C° 0 mm 2 m/s 761 mmHg 52%
    13:00 +7°C° 0 mm 2 m/s 760 mmHg 49%
    14:00 +8°C° 0 mm 1 m/s 760 mmHg 50%
    15:00 +8°C° 0 mm 1 m/s 760 mmHg 51%
    16:00 +7°C° 0 mm 1 m/s 759 mmHg 52%
    17:00 +6°C° 0 mm 1 m/s 760 mmHg 57%
    18:00 +5°C° 0 mm 1 m/s 760 mmHg 61%
    19:00 +3°C° 0 mm 1 m/s 761 mmHg 66%
    20:00 +3°C° 0 mm 1 m/s 761 mmHg 68%
    21:00 +2°C° 0 mm 1 m/s 761 mmHg 70%
    22:00 +2°C° 0 mm 1 m/s 762 mmHg 72%
    23:00 +1°C° 0 mm 1 m/s 761 mmHg 72%

    30 Janvier, Jeudi

    Heure Température Précipitation Vent Pression Humidité
    00:00 +1°C° 0 mm 1 m/s 761 mmHg 71%
    01:00 +1°C° 0 mm 1 m/s 761 mmHg 71%
    02:00 +1°C° 0 mm 1 m/s 761 mmHg 72%
    03:00 0°C° 0 mm 1 m/s 762 mmHg 73%
    04:00 0°C° 0 mm 1 m/s 762 mmHg 74%
    05:00 0°C° 0 mm 1 m/s 762 mmHg 74%
    06:00 -2°C° 0 mm 2 m/s 762 mmHg 73%
    07:00 -2°C° 0 mm 2 m/s 762 mmHg 72%
    08:00 -1°C° 0 mm 2 m/s 763 mmHg 67%
    09:00 +1°C° 0 mm 2 m/s 764 mmHg 61%
    10:00 +3°C° 0 mm 2 m/s 764 mmHg 56%
    11:00 +4°C° 0 mm 2 m/s 764 mmHg 51%
    12:00 +5°C° 0 mm 2 m/s 763 mmHg 46%
    13:00 +7°C° 0 mm 2 m/s 763 mmHg 40%
    14:00 +7°C° 0 mm 2 m/s 763 mmHg 41%
    15:00 +7°C° 0 mm 2 m/s 763 mmHg 42%
    16:00 +7°C° 0 mm 2 m/s 763 mmHg 44%
    17:00 +5°C° 0 mm 2 m/s 764 mmHg 51%
    18:00 +3°C° 0 mm 2 m/s 764 mmHg 59%
    19:00 +3°C° 0 mm 1 m/s 765 mmHg 67%
    20:00 +2°C° 0 mm 1 m/s 765 mmHg 71%
    21:00 +2°C° 0 mm 1 m/s 765 mmHg 76%
    22:00 +1°C° 0 mm 1 m/s 765 mmHg 80%
    23:00 +1°C° 0 mm 1 m/s 765 mmHg 81%

    31 Janvier, Vendredi

    Heure Température Précipitation Vent Pression Humidité
    00:00 +1°C° 0 mm 1 m/s 765 mmHg 83%
    01:00 +1°C° 0 mm 1 m/s 765 mmHg 85%
    02:00 0°C° 0 mm 1 m/s 765 mmHg 86%
    03:00 0°C° 0 mm 1 m/s 765 mmHg 86%
    04:00 0°C° 0 mm 1 m/s 765 mmHg 87%
    05:00 0°C° 0 mm 1 m/s 765 mmHg 87%
    06:00 0°C° 0 mm 1 m/s 766 mmHg 88%
    07:00 0°C° 0 mm 1 m/s 766 mmHg 88%
    08:00 +1°C° 0 mm 0 m/s 766 mmHg 80%
    09:00 +3°C° 0 mm 0 m/s 766 mmHg 72%
    10:00 +5°C° 0 mm 0 m/s 767 mmHg 63%
    11:00 +6°C° 0 mm 0 m/s 766 mmHg 59%
    12:00 +8°C° 0 mm 0 m/s 766 mmHg 54%
    13:00 +9°C° 0 mm 0 m/s 765 mmHg 50%
    14:00 +9°C° 0 mm 0 m/s 765 mmHg 51%
    15:00 +8°C° 0 mm 0 m/s 764 mmHg 52%
    16:00 +8°C° 0 mm 0 m/s 764 mmHg 53%
    17:00 +7°C° 0 mm 0 m/s 764 mmHg 58%
    18:00 +6°C° 0 mm 1 m/s 764 mmHg 63%
    19:00 +5°C° 0 mm 1 m/s 764 mmHg 68%
    20:00 +4°C° 0 mm 1 m/s 763 mmHg 73%
    21:00 +4°C° 0 mm 1 m/s 763 mmHg 78%
    22:00 +4°C° 0 mm 1 m/s 763 mmHg 82%
    23:00 +4°C° 0 mm 1 m/s 763 mmHg 83%

    1 Février, Samedi

    Heure Température Précipitation Vent Pression Humidité
    00:00 +4°C° 0 mm 1 m/s 762 mmHg 84%
    01:00 +4°C° 0 mm 1 m/s 761 mmHg 84%
    02:00 +4°C° 0.3 mm 1 m/s 760 mmHg 87%
    03:00 +3°C° 0.3 mm 0 m/s 760 mmHg 89%
    04:00 +4°C° 0.3 mm 0 m/s 759 mmHg 92%
    05:00 +4°C° 1 mm 1 m/s 758 mmHg 94%
    06:00 +4°C° 1 mm 1 m/s 758 mmHg 95%
    07:00 +4°C° 1 mm 1 m/s 757 mmHg 97%
    08:00 +4°C° 0.9 mm 1 m/s 757 mmHg 96%
    09:00 +4°C° 0.9 mm 1 m/s 756 mmHg 96%
    10:00 +5°C° 0.9 mm 1 m/s 756 mmHg 96%
    11:00 +5°C° 0.1 mm 1 m/s 755 mmHg 95%
    12:00 +5°C° 0.1 mm 1 m/s 754 mmHg 94%
    13:00 +6°C° 0.1 mm 1 m/s 753 mmHg 92%
    14:00 +6°C° 0 mm 1 m/s 752 mmHg 91%
    15:00 +6°C° 0 mm 1 m/s 751 mmHg 89%
    16:00 +6°C° 0 mm 1 m/s 750 mmHg 87%
    17:00 +6°C° 0 mm 1 m/s 750 mmHg 88%
    18:00 +6°C° 0 mm 1 m/s 750 mmHg 89%
    19:00 +6°C° 0 mm 1 m/s 750 mmHg 90%
    20:00 +5°C° 0.1 mm 1 m/s 750 mmHg 91%
    21:00 +4°C° 0.1 mm 0 m/s 750 mmHg 92%
    22:00 +4°C° 0.1 mm 0 m/s 750 mmHg 93%
    23:00 +5°C° 0.1 mm 1 m/s 749 mmHg 93%
    Voir plus